カタログに戻る

TIANMU-1 QIXIANG XINGZOU 02

運用中気象SSO
NORAD 55137·PAYLOAD·🇨🇳 China
この衛星名は、まだ公式ソースで確認されていません。

打ち上げ Jan 9, 2023 から Jiuquan Satellite Launch Center

Loading…

次のパス (今後24時間)

TLE

最新Source: Space-Track

元期: Sep 14, 2026, 15:25 UTC

1 55137U 23003E   26257.64238975  .00021180  00000-0  27488-3 0  9999
2 55137  97.1355 333.1792 0004605 130.7346 229.4312 15.58844340206182

AllMySatでTIANMU-1 QIXIANG XINGZOU 02をリアルタイム追跡

Download on the App Store